Weather in Ostrov

Russia / Yaroslavl Oblast     57°17′54″N   40°21′43″E
temp.,
°C
wind,
m/s
gust,
m/s
humid.,
%
clouds,
%
prec.,
mm/h
press.,
hPa
HPBL,
m
14 may, fri
fri1400:00+10s379688 0.0 1017129
03:00+10ssw249379 0.0 101967
06:00+10s36921 0.0 1019175
09:00+15ssw357397 0.0 1018572
12:00+19sse3566100 0.1 10181122
15:00+20sse466431 1.2 10171411
18:00+18se3579100 1.5 1015225
21:00+14ese379661 10.2 1015160
15 may, sat
sat1500:00+13se3797100 1.4 1014168
03:00+13ese3897100 1.9 1013194
06:00+14se3895100 0.0 1012199
09:00+18sse41380100 0.5 1011436
12:00+21se51073100 0.0 1010546
15:00+18sse41087100 3.6 1011642
18:00+19s611831 1.0 1009590
21:00+16ssw4139221 1.4 1010365
16 may, sun
sun1600:00+13s310945 0.0 1010219
03:00+12s4109612 0.0 1011213
06:00+13s410940 0.0 1012308
09:00+18ssw58769 0.0 1012878
12:00+20ssw7105832 0.0 10121846
15:00+21sw7105626 0.1 10122252
18:00+18sw510710 0.8 1012800
21:00+13ssw37921 0.8 1013135
17 may, mon
mon1700:00+12sw35945 0.0 101495
03:00+11sw2395100 0.0 101657
06:00+13sw2391100 0.0 1016109
09:00+18se2272100 0.0 1016449
12:00+22sse235686 0.0 10161184
15:00+23se3452100 0.0 10151371
18:00+22e477136 0.0 1013303
21:00+17e4119299 0.6 1013190
18 may, tue
tue1800:00+16se3109270 0.0 1012158
03:00+14se499089 0.0 1011138
06:00+16se4128659 0.0 1011237
09:00+22se5146188 0.0 1010613
12:00+26sse611475 0.0 10091229
15:00+27sse6114611 0.0 10081583
18:00+23se6135385 0.0 1008513
21:00+17sse377475 0.0 1009106